| time (UTC) | temp F | wind direction | speed MPH | gust MPH | rain 1hr in | rain 24hr in | rain mn in | humidity % | barometer mb |
| 20260506090620 | 49 | 4 | 1.0 | 4.0 | 0.13 | 0.88 | 0.35 | 97 | 1006.1 |
| 20260506090120 | 49 | 347 | 0.0 | 4.0 | 0.14 | 0.88 | 0.35 | 97 | 1006.0 |
| 20260506085851 | 49 | 338 | 0.0 | 3.0 | 0.13 | 0.87 | 0.34 | 97 | 1006.2 |
| 20260506085120 | 49 | 354 | 1.0 | 5.0 | 0.12 | 0.86 | 0.33 | 97 | 1006.1 |
| 20260506084539 | 49 | 1 | 1.0 | 5.0 | 0.12 | 0.85 | 0.32 | 97 | 1006.2 |
| 20260506084040 | 49 | 285 | 0.0 | 0.0 | 0.11 | 0.84 | 0.31 | 97 | 1006.3 |
| 20260506083540 | 49 | 338 | 0.0 | 0.0 | 0.09 | 0.82 | 0.29 | 97 | 1006.3 |
| 20260506083039 | 49 | 333 | 0.0 | 0.0 | 0.08 | 0.80 | 0.28 | 97 | 1006.3 |
| 20260506082539 | 49 | 359 | 1.0 | 4.0 | 0.07 | 0.79 | 0.26 | 97 | 1006.3 |
| 20260506082040 | 49 | 359 | 1.0 | 4.0 | 0.07 | 0.78 | 0.25 | 97 | 1006.3 |
| 20260506081539 | 50 | 6 | 0.0 | 4.0 | 0.06 | 0.77 | 0.24 | 97 | 1006.2 |
| 20260506081041 | 50 | 1 | 0.0 | 4.0 | 0.05 | 0.76 | 0.23 | 97 | 1006.2 |
| 20260506080539 | 50 | 327 | 0.0 | 0.0 | 0.05 | 0.75 | 0.22 | 97 | 1006.2 |
| 20260506073039 | 50 | 316 | 0.0 | 0.0 | 0.06 | 0.72 | 0.19 | 97 | 1006.0 |
| 20260506072539 | 50 | 316 | 0.0 | 0.0 | 0.06 | 0.72 | 0.19 | 97 | 1006.1 |
| 20260506072310 | 50 | 316 | 0.0 | 0.0 | 0.06 | 0.71 | 0.18 | 97 | 1006.1 |
| 20260506071540 | 50 | 316 | 0.0 | 0.0 | 0.06 | 0.71 | 0.18 | 97 | 1006.0 |
| 20260506071052 | 50 | 316 | 0.0 | 0.0 | 0.05 | 0.70 | 0.18 | 97 | 1006.0 |
| 20260506070811 | 51 | 316 | 0.0 | 0.0 | 0.06 | 0.70 | 0.17 | 97 | 1006.1 |
| 20260506062039 | 52 | 311 | 0.0 | 0.0 | 0.06 | 0.65 | 0.12 | 97 | 1006.5 |
| 20260506061540 | 52 | 311 | 0.0 | 0.0 | 0.07 | 0.65 | 0.12 | 97 | 1006.6 |
| 20260506061039 | 52 | 311 | 0.0 | 0.0 | 0.07 | 0.65 | 0.12 | 97 | 1006.6 |
| 20260506060539 | 52 | 311 | 0.0 | 0.0 | 0.06 | 0.64 | 0.11 | 96 | 1006.7 |
| 20260506051039 | 52 | 311 | 0.0 | 0.0 | 0.04 | 0.58 | 0.05 | 96 | 1007.6 |
| 20260506050540 | 52 | 310 | 0.0 | 0.0 | 0.05 | 0.58 | 0.05 | 96 | 1007.7 |
| 20260506045039 | 53 | 310 | 0.0 | 0.0 | 0.05 | 0.57 | 0.04 | 96 | 1007.9 |
| 20260506044540 | 53 | 357 | 0.0 | 0.0 | 0.05 | 0.57 | 0.04 | 96 | 1007.9 |
| 20260506044039 | 53 | 357 | 0.0 | 3.0 | 0.05 | 0.57 | 0.04 | 95 | 1007.9 |
| 20260506043540 | 54 | 4 | 1.0 | 4.0 | 0.05 | 0.56 | 0.03 | 95 | 1008.0 |
| 20260506043040 | 55 | 1 | 0.0 | 5.0 | 0.06 | 0.56 | 0.03 | 96 | 1007.9 |
| 20260506042540 | 55 | 294 | 1.0 | 5.0 | 0.06 | 0.55 | 0.02 | 96 | 1007.9 |
| 20260506042039 | 55 | 300 | 2.0 | 8.0 | 0.10 | 0.55 | 0.02 | 96 | 1007.9 |
| 20260506041540 | 56 | 319 | 2.0 | 8.0 | 0.14 | 0.54 | 0.01 | 96 | 1007.9 |
| 20260506041040 | 57 | 356 | 2.0 | 8.0 | 0.17 | 0.54 | 0.01 | 96 | 1007.9 |
| 20260506040539 | 57 | 312 | 1.0 | 6.0 | 0.19 | 0.53 | 0.00 | 96 | 1007.9 |
| 20260506040041 | 57 | 311 | 1.0 | 6.0 | 0.20 | 0.53 | 0.00 | 96 | 1007.8 |
| 20260506035547 | 57 | 295 | 1.0 | 8.0 | 0.20 | 0.52 | 0.52 | 96 | 1007.8 |
| 20260506035540 | 57 | 278 | 1.0 | 6.0 | 0.20 | 0.53 | 0.53 | 96 | 1007.8 |
| 20260506034540 | 57 | 277 | 1.0 | 8.0 | 0.20 | 0.52 | 0.52 | 96 | 1007.8 |
| 20260506034310 | 57 | 258 | 0.0 | 6.0 | 0.20 | 0.52 | 0.52 | 96 | 1007.9 |
| 20260506033540 | 56 | 198 | 0.0 | 4.0 | 0.20 | 0.51 | 0.51 | 96 | 1007.9 |
| 20260506033040 | 56 | 244 | 0.0 | 4.0 | 0.19 | 0.50 | 0.51 | 96 | 1007.9 |
| 20260506032547 | 56 | 359 | 0.0 | 0.0 | 0.15 | 0.45 | 0.45 | 96 | 1007.9 |
| 20260506032540 | 56 | 359 | 0.0 | 0.0 | 0.19 | 0.49 | 0.49 | 96 | 1007.9 |
| 20260506031539 | 56 | 359 | 0.0 | 0.0 | 0.10 | 0.40 | 0.41 | 96 | 1007.9 |
| 20260506031040 | 56 | 359 | 0.0 | 0.0 | 0.08 | 0.37 | 0.37 | 95 | 1007.9 |
| 20260506030540 | 56 | 359 | 0.0 | 0.0 | 0.05 | 0.34 | 0.34 | 95 | 1008.0 |
| 20260506030052 | 56 | 359 | 0.0 | 0.0 | 0.04 | 0.33 | 0.33 | 95 | 1007.9 |
| 20260506025812 | 56 | 359 | 0.0 | 0.0 | 0.05 | 0.33 | 0.33 | 95 | 1007.9 |
| 20260506025039 | 56 | 359 | 0.0 | 0.0 | 0.04 | 0.32 | 0.32 | 95 | 1007.9 |
| 20260506024552 | 56 | 359 | 0.0 | 0.0 | 0.05 | 0.32 | 0.32 | 95 | 1007.8 |
| 20260506024040 | 56 | 359 | 0.0 | 0.0 | 0.05 | 0.32 | 0.32 | 95 | 1007.9 |
| 20260506023540 | 56 | 359 | 0.0 | 0.0 | 0.04 | 0.31 | 0.31 | 95 | 1007.9 |
| 20260506023040 | 56 | 359 | 0.0 | 0.0 | 0.04 | 0.31 | 0.31 | 94 | 1007.9 |
| 20260506022552 | 56 | 359 | 0.0 | 0.0 | 0.03 | 0.30 | 0.30 | 94 | 1007.9 |
| 20260506022040 | 56 | 359 | 0.0 | 0.0 | 0.03 | 0.30 | 0.30 | 94 | 1008.0 |
| 20260506021540 | 56 | 359 | 0.0 | 0.0 | 0.03 | 0.30 | 0.30 | 94 | 1008.0 |
| 20260506021040 | 56 | 359 | 0.0 | 0.0 | 0.02 | 0.29 | 0.29 | 94 | 1008.0 |
| 20260506020811 | 56 | 359 | 0.0 | 0.0 | 0.02 | 0.29 | 0.29 | 94 | 1008.0 |
| 20260506020053 | 56 | 359 | 0.0 | 0.0 | 0.03 | 0.29 | 0.29 | 94 | 1008.0 |
| 20260506015540 | 56 | 359 | 0.0 | 0.0 | 0.05 | 0.28 | 0.28 | 94 | 1008.2 |
| 20260506015036 | 56 | 359 | 0.0 | 0.0 | 0.15 | 0.28 | 0.28 | 93 | 1007.9 |
| 20260506014537 | 56 | 359 | 0.0 | 0.0 | 0.21 | 0.27 | 0.27 | 93 | 1007.8 |
| 20260506014044 | 56 | 359 | 0.0 | 0.0 | 0.25 | 0.27 | 0.27 | 92 | 1007.9 |
| 20260506014037 | 56 | 359 | 0.0 | 0.0 | 0.25 | 0.27 | 0.27 | 93 | 1007.7 |
| 20260506013036 | 56 | 359 | 0.0 | 0.0 | 0.25 | 0.27 | 0.27 | 92 | 1007.8 |
| 20260506012530 | 56 | 359 | 0.0 | 0.0 | 0.25 | 0.27 | 0.27 | 92 | 1007.9 |
| 20260506012029 | 56 | 359 | 0.0 | 0.0 | 0.25 | 0.27 | 0.27 | 92 | 1008.0 |
| 20260506011529 | 56 | 359 | 0.0 | 0.0 | 0.25 | 0.27 | 0.27 | 92 | 1008.0 |
| 20260506011026 | 57 | 359 | 0.0 | 4.0 | 0.25 | 0.27 | 0.27 | 91 | 1008.0 |
| 20260506010526 | 57 | 359 | 1.0 | 7.0 | 0.25 | 0.27 | 0.27 | 91 | 1008.0 |
| 20260506010257 | 58 | 340 | 3.0 | 10.0 | 0.24 | 0.26 | 0.26 | 90 | 1008.0 |
| 20260506005524 | 58 | 306 | 4.0 | 14.0 | 0.21 | 0.23 | 0.24 | 89 | 1008.7 |
| 20260506005024 | 59 | 335 | 5.0 | 14.0 | 0.11 | 0.13 | 0.14 | 88 | 1008.6 |
| 20260506004524 | 60 | 288 | 4.0 | 11.0 | 0.04 | 0.06 | 0.06 | 87 | 1007.8 |
| 20260506004024 | 61 | 291 | 1.0 | 11.0 | 0.00 | 0.02 | 0.03 | 86 | 1007.5 |
| 20260506003524 | 61 | 295 | 0.0 | 0.0 | 0.00 | 0.02 | 0.02 | 86 | 1007.3 |
| 20260506003024 | 61 | 295 | 0.0 | 0.0 | 0.00 | 0.02 | 0.02 | 86 | 1007.1 |
| 20260506002523 | 61 | 295 | 0.0 | 0.0 | 0.00 | 0.02 | 0.02 | 85 | 1007.0 |
| 20260506002024 | 61 | 295 | 0.0 | 0.0 | 0.00 | 0.02 | 0.02 | 85 | 1007.0 |
| 20260506001524 | 62 | 295 | 0.0 | 0.0 | 0.00 | 0.02 | 0.02 | 84 | 1007.1 |
| 20260506001024 | 62 | 295 | 0.0 | 0.0 | 0.00 | 0.02 | 0.02 | 84 | 1007.1 |
| 20260506000523 | 62 | 295 | 0.0 | 0.0 | 0.00 | 0.02 | 0.02 | 83 | 1007.1 |
| 20260506000024 | 62 | 295 | 0.0 | 0.0 | 0.00 | 0.02 | 0.02 | 82 | 1007.1 |
| 20260505235524 | 62 | 295 | 0.0 | 0.0 | 0.00 | 0.02 | 0.02 | 82 | 1007.1 |
| 20260505235024 | 62 | 295 | 0.0 | 0.0 | 0.00 | 0.02 | 0.02 | 82 | 1006.9 |
| 20260505234524 | 62 | 295 | 0.0 | 0.0 | 0.00 | 0.02 | 0.02 | 81 | 1007.0 |
| 20260505234024 | 62 | 295 | 0.0 | 0.0 | 0.00 | 0.02 | 0.02 | 81 | 1006.9 |
| 20260505233755 | 62 | 295 | 0.0 | 0.0 | 0.00 | 0.02 | 0.02 | 81 | 1007.0 |
| 20260505233024 | 62 | 295 | 0.0 | 0.0 | 0.00 | 0.02 | 0.02 | 81 | 1007.2 |
| 20260505232525 | 62 | 295 | 0.0 | 0.0 | 0.00 | 0.02 | 0.02 | 81 | 1007.0 |
| 20260505232255 | 63 | 295 | 0.0 | 0.0 | 0.00 | 0.02 | 0.02 | 81 | 1007.2 |
| 20260505231522 | 63 | 295 | 0.0 | 0.0 | 0.00 | 0.02 | 0.02 | 80 | 1007.2 |
| 20260505231022 | 63 | 295 | 0.0 | 0.0 | 0.00 | 0.02 | 0.02 | 80 | 1007.1 |
| 20260505230522 | 63 | 295 | 0.0 | 0.0 | 0.00 | 0.02 | 0.02 | 79 | 1007.1 |
| 20260505230022 | 63 | 295 | 0.0 | 0.0 | 0.00 | 0.02 | 0.02 | 79 | 1007.2 |
| 20260505225522 | 63 | 295 | 0.0 | 0.0 | 0.00 | 0.02 | 0.02 | 79 | 1007.3 |
| 20260505225021 | 63 | 295 | 0.0 | 0.0 | 0.00 | 0.02 | 0.02 | 78 | 1007.4 |
| 20260505224522 | 63 | 295 | 0.0 | 0.0 | 0.00 | 0.02 | 0.02 | 78 | 1007.4 |
| 20260505224022 | 63 | 295 | 0.0 | 0.0 | 0.00 | 0.02 | 0.02 | 78 | 1007.4 |
| 20260505223522 | 63 | 295 | 0.0 | 0.0 | 0.00 | 0.02 | 0.02 | 78 | 1007.5 |
| 20260505223021 | 63 | 295 | 0.0 | 0.0 | 0.00 | 0.02 | 0.02 | 78 | 1007.4 |
| 20260505222522 | 63 | 295 | 0.0 | 0.0 | 0.00 | 0.02 | 0.02 | 78 | 1007.4 |
| 20260505222022 | 63 | 295 | 0.0 | 0.0 | 0.00 | 0.02 | 0.02 | 78 | 1007.5 |
| 20260505221522 | 63 | 295 | 0.0 | 0.0 | 0.00 | 0.02 | 0.02 | 78 | 1007.5 |
| 20260505221022 | 63 | 295 | 0.0 | 0.0 | 0.00 | 0.02 | 0.02 | 78 | 1007.4 |
| 20260505220754 | 63 | 295 | 0.0 | 0.0 | 0.00 | 0.02 | 0.02 | 78 | 1007.5 |
| 20260505220022 | 63 | 298 | 0.0 | 0.0 | 0.00 | 0.02 | 0.02 | 78 | 1007.5 |
| 20260505215522 | 63 | 296 | 0.0 | 0.0 | 0.00 | 0.02 | 0.02 | 78 | 1007.5 |
| 20260505215022 | 62 | 296 | 0.0 | 3.0 | 0.00 | 0.02 | 0.02 | 78 | 1007.5 |
| 20260505214521 | 62 | 297 | 0.0 | 3.0 | 0.01 | 0.02 | 0.02 | 79 | 1007.5 |
| 20260505214021 | 62 | 291 | 0.0 | 0.0 | 0.01 | 0.02 | 0.02 | 80 | 1007.5 |
| 20260505213752 | 62 | 291 | 0.0 | 0.0 | 0.01 | 0.02 | 0.02 | 80 | 1007.5 |
| 20260505213022 | 62 | 291 | 0.0 | 0.0 | 0.01 | 0.02 | 0.02 | 80 | 1007.5 |
| 20260505212751 | 62 | 291 | 0.0 | 0.0 | 0.01 | 0.02 | 0.02 | 80 | 1007.6 |
| 20260505212021 | 62 | 291 | 0.0 | 2.0 | 0.01 | 0.02 | 0.02 | 80 | 1007.6 |
| 20260505211520 | 62 | 288 | 0.0 | 2.0 | 0.01 | 0.02 | 0.02 | 79 | 1007.6 |
| 20260505211020 | 63 | 291 | 0.0 | 1.0 | 0.01 | 0.02 | 0.02 | 78 | 1007.7 |
| 20260505210521 | 63 | 290 | 0.0 | 3.0 | 0.01 | 0.02 | 0.02 | 76 | 1007.5 |
| 20260505210021 | 64 | 281 | 1.0 | 7.0 | 0.01 | 0.02 | 0.02 | 74 | 1007.5 |
| 20260505205521 | 65 | 297 | 1.0 | 7.0 | 0.01 | 0.02 | 0.02 | 69 | 1007.7 |
| 20260505205251 | 67 | 268 | 0.0 | 7.0 | 0.01 | 0.02 | 0.02 | 63 | 1007.6 |
| 20260505204520 | 68 | 238 | 0.0 | 3.0 | 0.00 | 0.01 | 0.01 | 57 | 1007.4 |
| 20260505204021 | 68 | 277 | 0.0 | 3.0 | 0.00 | 0.01 | 0.01 | 55 | 1007.1 |
| 20260505203520 | 68 | 278 | 0.0 | 5.0 | 0.00 | 0.01 | 0.01 | 54 | 1007.1 |
| 20260505203021 | 68 | 220 | 0.0 | 5.0 | 0.00 | 0.01 | 0.01 | 54 | 1007.2 |
| 20260505202751 | 68 | 297 | 0.0 | 5.0 | 0.00 | 0.01 | 0.01 | 54 | 1007.2 |
| 20260505202020 | 68 | 163 | 1.0 | 5.0 | 0.00 | 0.01 | 0.01 | 55 | 1007.3 |
| 20260505201521 | 68 | 210 | 1.0 | 5.0 | 0.00 | 0.01 | 0.01 | 54 | 1007.5 |
| 20260505201020 | 68 | 237 | 1.0 | 5.0 | 0.00 | 0.01 | 0.01 | 54 | 1007.5 |
| 20260505200521 | 68 | 329 | 1.0 | 6.0 | 0.00 | 0.01 | 0.01 | 54 | 1007.4 |
| 20260505200252 | 68 | 251 | 1.0 | 6.0 | 0.00 | 0.01 | 0.01 | 54 | 1007.5 |
| 20260505195521 | 68 | 271 | 1.0 | 9.0 | 0.00 | 0.01 | 0.01 | 54 | 1007.7 |
| 20260505195021 | 68 | 316 | 1.0 | 9.0 | 0.00 | 0.01 | 0.01 | 54 | 1007.8 |
| 20260505194520 | 69 | 329 | 1.0 | 9.0 | 0.00 | 0.01 | 0.01 | 53 | 1007.8 |
| 20260505194253 | 68 | 41 | 1.0 | 4.0 | 0.00 | 0.01 | 0.01 | 54 | 1007.9 |
| 20260505193522 | 68 | 244 | 2.0 | 9.0 | 0.00 | 0.01 | 0.01 | 53 | 1007.9 |
| 20260505193021 | 68 | 316 | 3.0 | 9.0 | 0.00 | 0.01 | 0.01 | 53 | 1008.0 |
| 20260505192522 | 68 | 248 | 3.0 | 9.0 | 0.00 | 0.01 | 0.01 | 53 | 1007.9 |
| 20260505192022 | 68 | 129 | 2.0 | 10.0 | 0.00 | 0.01 | 0.01 | 53 | 1007.9 |
| 20260505191522 | 68 | 181 | 1.0 | 10.0 | 0.00 | 0.01 | 0.01 | 54 | 1008.0 |
| 20260505191021 | 68 | 276 | 1.0 | 10.0 | 0.00 | 0.01 | 0.01 | 53 | 1008.1 |
| 20260505190521 | 68 | 302 | 2.0 | 10.0 | 0.00 | 0.01 | 0.01 | 54 | 1008.2 |
| 20260505190022 | 68 | 248 | 2.0 | 10.0 | 0.00 | 0.01 | 0.01 | 53 | 1008.2 |
| 20260505185510 | 68 | 150 | 2.0 | 11.0 | 0.00 | 0.01 | 0.01 | 53 | 1008.1 |
| 20260505185005 | 68 | 274 | 3.0 | 11.0 | 0.00 | 0.01 | 0.01 | 51 | 1008.1 |
| 20260505184508 | 69 | 283 | 4.0 | 14.0 | 0.00 | 0.01 | 0.01 | 51 | 1008.0 |
| 20260505183959 | 69 | 159 | 3.0 | 15.0 | 0.00 | 0.01 | 0.01 | 49 | 1008.1 |
| 20260505183458 | 69 | 230 | 3.0 | 15.0 | 0.00 | 0.01 | 0.01 | 49 | 1008.1 |
| 20260505182957 | 70 | 314 | 5.0 | 17.0 | 0.00 | 0.01 | 0.01 | 47 | 1008.0 |
| 20260505182456 | 71 | 233 | 3.0 | 17.0 | 0.00 | 0.01 | 0.01 | 47 | 1008.0 |
| 20260505182227 | 71 | 278 | 2.0 | 13.0 | 0.00 | 0.01 | 0.01 | 47 | 1007.8 |
| 20260505181456 | 71 | 271 | 5.0 | 16.0 | 0.00 | 0.01 | 0.01 | 45 | 1007.8 |
| 20260505180956 | 71 | 182 | 6.0 | 16.0 | 0.00 | 0.01 | 0.01 | 47 | 1007.7 |
| 20260505180456 | 71 | 190 | 5.0 | 14.0 | 0.00 | 0.01 | 0.01 | 45 | 1007.9 |
| 20260505175953 | 70 | 131 | 5.0 | 13.0 | 0.00 | 0.01 | 0.01 | 48 | 1007.7 |
| 20260505175453 | 69 | 330 | 4.0 | 14.0 | 0.00 | 0.01 | 0.01 | 48 | 1007.7 |
| 20260505174953 | 69 | 249 | 2.0 | 15.0 | 0.00 | 0.01 | 0.01 | 51 | 1007.7 |
| 20260505174453 | 69 | 181 | 3.0 | 15.0 | 0.00 | 0.01 | 0.01 | 50 | 1007.8 |
| 20260505173955 | 70 | 240 | 4.0 | 16.0 | 0.00 | 0.01 | 0.01 | 50 | 1007.7 |
| 20260505173447 | 70 | 259 | 4.0 | 16.0 | 0.00 | 0.01 | 0.01 | 48 | 1007.7 |
| 20260505172946 | 71 | 224 | 3.0 | 11.0 | 0.00 | 0.01 | 0.01 | 48 | 1007.5 |
| 20260505172446 | 71 | 148 | 3.0 | 15.0 | 0.00 | 0.01 | 0.01 | 48 | 1007.5 |
| 20260505171945 | 71 | 236 | 3.0 | 15.0 | 0.00 | 0.01 | 0.01 | 51 | 1007.5 |
| 20260505171443 | 70 | 328 | 2.0 | 14.0 | 0.00 | 0.01 | 0.01 | 49 | 1007.6 |
| 20260505170945 | 70 | 193 | 4.0 | 14.0 | 0.00 | 0.01 | 0.01 | 49 | 1007.5 |
| 20260505170441 | 70 | 287 | 4.0 | 17.0 | 0.00 | 0.01 | 0.01 | 48 | 1007.6 |
| 20260505165942 | 70 | 238 | 4.0 | 17.0 | 0.00 | 0.01 | 0.01 | 48 | 1007.5 |
| 20260505165439 | 70 | 240 | 3.0 | 13.0 | 0.00 | 0.01 | 0.01 | 49 | 1007.5 |
| 20260505164939 | 70 | 249 | 3.0 | 11.0 | 0.00 | 0.01 | 0.01 | 50 | 1007.4 |
| 20260505164439 | 70 | 271 | 4.0 | 13.0 | 0.00 | 0.01 | 0.01 | 49 | 1007.5 |
| 20260505163939 | 70 | 144 | 4.0 | 13.0 | 0.00 | 0.01 | 0.01 | 48 | 1007.4 |
| 20260505163439 | 70 | 102 | 3.0 | 12.0 | 0.00 | 0.01 | 0.01 | 48 | 1007.3 |
| 20260505162939 | 71 | 240 | 3.0 | 12.0 | 0.00 | 0.01 | 0.01 | 48 | 1007.3 |
| 20260505162709 | 70 | 297 | 2.0 | 12.0 | 0.00 | 0.01 | 0.01 | 52 | 1007.3 |
| 20260505161938 | 70 | 179 | 2.0 | 12.0 | 0.00 | 0.01 | 0.01 | 51 | 1007.2 |
| 20260505161438 | 69 | 276 | 3.0 | 12.0 | 0.00 | 0.01 | 0.01 | 51 | 1007.3 |
| 20260505160941 | 69 | 307 | 4.0 | 12.0 | 0.00 | 0.01 | 0.01 | 51 | 1007.6 |
| 20260505160440 | 69 | 359 | 4.0 | 16.0 | 0.00 | 0.01 | 0.01 | 50 | 1007.6 |
| 20260505152937 | 68 | 243 | 3.0 | 15.0 | 0.00 | 0.01 | 0.01 | 60 | 1007.8 |
| 20260505152438 | 67 | 240 | 3.0 | 11.0 | 0.00 | 0.01 | 0.01 | 61 | 1007.8 |
| 20260505151938 | 67 | 247 | 2.0 | 10.0 | 0.00 | 0.01 | 0.01 | 61 | 1007.7 |
| 20260505151437 | 66 | 117 | 1.0 | 9.0 | 0.01 | 0.01 | 0.01 | 67 | 1007.7 |
| 20260505150936 | 65 | 221 | 3.0 | 11.0 | 0.01 | 0.01 | 0.01 | 64 | 1007.8 |
| 20260505150436 | 65 | 176 | 3.0 | 13.0 | 0.01 | 0.01 | 0.01 | 66 | 1007.7 |
| 20260505140432 | 63 | 198 | 1.0 | 8.0 | 0.00 | 0.00 | 0.00 | 67 | 1007.5 |
| 20260505130156 | 65 | 217 | 1.0 | 8.0 | 0.00 | 0.00 | 0.00 | 60 | 1007.4 |
| 20260505124923 | 64 | 98 | 1.0 | 8.0 | 0.00 | 0.00 | 0.00 | 60 | 1007.3 |
| 20260505124423 | 65 | 305 | 2.0 | 9.0 | 0.00 | 0.00 | 0.00 | 60 | 1007.3 |
| 20260505123923 | 65 | 234 | 2.0 | 9.0 | 0.00 | 0.00 | 0.00 | 59 | 1007.4 |
| 20260505123420 | 65 | 207 | 1.0 | 9.0 | 0.00 | 0.00 | 0.00 | 60 | 1007.4 |
| 20260505122920 | 65 | 241 | 1.0 | 9.0 | 0.00 | 0.00 | 0.00 | 60 | 1007.4 |
| 20260505122421 | 65 | 255 | 1.0 | 9.0 | 0.00 | 0.00 | 0.00 | 61 | 1007.2 |
| 20260505121920 | 64 | 271 | 1.0 | 12.0 | 0.00 | 0.00 | 0.00 | 62 | 1007.2 |
| 20260505121421 | 64 | 184 | 2.0 | 12.0 | 0.00 | 0.00 | 0.00 | 61 | 1007.3 |
| 20260505120921 | 63 | 151 | 1.0 | 7.0 | 0.00 | 0.00 | 0.00 | 61 | 1007.2 |
| 20260505120652 | 63 | 186 | 1.0 | 7.0 | 0.00 | 0.00 | 0.00 | 62 | 1007.2 |
| 20260505115921 | 63 | 207 | 1.0 | 7.0 | 0.00 | 0.00 | 0.00 | 62 | 1007.4 |
| 20260505115421 | 63 | 193 | 1.0 | 8.0 | 0.00 | 0.00 | 0.00 | 63 | 1007.3 |
| 20260505114920 | 62 | 205 | 1.0 | 8.0 | 0.00 | 0.00 | 0.00 | 63 | 1007.2 |
| 20260505114421 | 62 | 141 | 2.0 | 9.0 | 0.00 | 0.00 | 0.00 | 63 | 1007.2 |
| 20260505113920 | 62 | 195 | 2.0 | 9.0 | 0.00 | 0.00 | 0.00 | 63 | 1007.2 |
| 20260505113420 | 62 | 218 | 2.0 | 10.0 | 0.00 | 0.00 | 0.00 | 62 | 1007.1 |
| 20260505112920 | 62 | 172 | 2.0 | 10.0 | 0.00 | 0.00 | 0.00 | 62 | 1007.0 |
| 20260505112419 | 62 | 221 | 1.0 | 9.0 | 0.00 | 0.00 | 0.00 | 63 | 1007.1 |
| 20260505111919 | 62 | 182 | 1.0 | 7.0 | 0.00 | 0.00 | 0.00 | 64 | 1006.9 |
| 20260505111419 | 62 | 216 | 1.0 | 9.0 | 0.00 | 0.00 | 0.00 | 64 | 1006.8 |
| 20260505110920 | 62 | 173 | 1.0 | 12.0 | 0.00 | 0.00 | 0.00 | 64 | 1006.9 |
| 20260505110652 | 61 | 212 | 1.0 | 12.0 | 0.00 | 0.00 | 0.00 | 64 | 1006.8 |
| 20260505110154 | 61 | 266 | 0.0 | 6.0 | 0.00 | 0.00 | 0.00 | 65 | 1007.0 |
| 20260505101921 | 61 | 127 | 1.0 | 6.0 | 0.00 | 0.00 | 0.00 | 66 | 1006.3 |
| 20260505101652 | 61 | 181 | 1.0 | 9.0 | 0.00 | 0.00 | 0.00 | 65 | 1006.3 |
| 20260505101151 | 61 | 235 | 1.0 | 9.0 | 0.00 | 0.00 | 0.00 | 65 | 1006.3 |
| 20260505101036 | 61 | 281 | 0.0 | 7.0 | 0.00 | 0.00 | 0.00 | 65 | 1006.3 |
| 20260505095921 | 61 | 171 | 1.0 | 6.0 | 0.00 | 0.00 | 0.00 | 66 | 1006.2 |
| 20260505095421 | 61 | 201 | 1.0 | 8.0 | 0.00 | 0.00 | 0.00 | 65 | 1006.2 |
| 20260505094921 | 61 | 216 | 1.0 | 8.0 | 0.00 | 0.00 | 0.00 | 65 | 1006.0 |
| 20260505094420 | 62 | 222 | 1.0 | 8.0 | 0.00 | 0.00 | 0.00 | 65 | 1006.1 |
| 20260505093921 | 62 | 226 | 1.0 | 8.0 | 0.00 | 0.00 | 0.00 | 65 | 1006.0 |
| 20260505093421 | 62 | 272 | 1.0 | 8.0 | 0.00 | 0.00 | 0.00 | 65 | 1006.0 |
| 20260505092921 | 62 | 243 | 2.0 | 8.0 | 0.00 | 0.00 | 0.00 | 64 | 1006.0 |
| 20260505092420 | 62 | 221 | 2.0 | 14.0 | 0.00 | 0.00 | 0.00 | 65 | 1006.0 |
| 20260505091921 | 62 | 169 | 1.0 | 14.0 | 0.00 | 0.00 | 0.00 | 64 | 1006.0 |
| 20260505091421 | 62 | 165 | 1.0 | 9.0 | 0.00 | 0.00 | 0.00 | 64 | 1006.0 |